Time,TemperatureF,DewpointF,PressureIn,WindDirection,WindDirectionDegrees,WindSpeedMPH,WindSpeedGustMPH,Humidity,HourlyPrecipIn,Conditions,Clouds,dailyrainin,SoftwareType,DateUTC
2013-02-01 00:00:00,25.9,16.8,29.88,WSW,255,2.0,5.0,68,0.00,,,0.35,Wunderground v.1.15,2013-02-01 05:00:00,
2013-02-01 00:02:00,25.8,16.7,29.88,WSW,255,3.0,3.0,68,0.00,,,0.00,Wunderground v.1.15,2013-02-01 05:02:00,
2013-02-01 00:04:00,25.9,17.1,29.88,WSW,255,0.0,3.0,69,0.00,,,0.00,Wunderground v.1.15,2013-02-01 05:04:00,
2013-02-01 00:10:00,25.8,16.7,29.88,WSW,255,0.0,0.0,68,0.00,,,0.00,Wunderground v.1.15,2013-02-01 05:10:00,
2013-02-01 00:15:00,25.8,17.0,29.87,WSW,255,0.0,0.0,69,0.00,,,0.00,Wunderground v.1.15,2013-02-01 05:15:00,
2013-02-01 00:21:00,25.7,16.3,29.86,WSW,255,0.0,0.0,67,0.00,,,0.00,Wunderground v.1.15,2013-02-01 05:21:00,
2013-02-01 00:26:00,25.7,16.3,29.86,WSW,255,0.0,0.0,67,0.00,,,0.00,Wunderground v.1.15,2013-02-01 05:26:00,
2013-02-01 00:32:00,25.4,16.0,29.86,WSW,255,0.0,2.0,67,0.00,,,0.00,Wunderground v.1.15,2013-02-01 05:32:00,
2013-02-01 00:37:00,25.2,16.1,29.86,WSW,255,0.0,2.0,68,0.00,,,0.00,Wunderground v.1.15,2013-02-01 05:37:00,
2013-02-01 00:42:00,25.0,16.3,29.86,WSW,255,0.0,0.0,69,0.00,,,0.00,Wunderground v.1.15,2013-02-01 05:42:00,
2013-02-01 00:48:00,24.8,16.7,29.85,WSW,255,0.0,0.0,71,0.00,,,0.00,Wunderground v.1.15,2013-02-01 05:48:00,
2013-02-01 00:53:00,24.6,17.2,29.85,WSW,255,0.0,0.0,73,0.00,,,0.00,Wunderground v.1.15,2013-02-01 05:53:00,
2013-02-01 00:58:00,24.3,17.2,29.86,WSW,255,0.0,0.0,74,0.00,,,0.00,Wunderground v.1.15,2013-02-01 05:58:00,
2013-02-01 01:04:00,24.0,16.9,29.86,WSW,255,0.0,0.0,74,0.00,,,0.00,Wunderground v.1.15,2013-02-01 06:04:00,
2013-02-01 01:09:00,23.8,16.7,29.86,WSW,255,0.0,1.0,74,0.00,,,0.00,Wunderground v.1.15,2013-02-01 06:09:00,
2013-02-01 01:15:00,23.7,16.6,29.87,WSW,255,0.0,0.0,74,0.00,,,0.00,Wunderground v.1.15,2013-02-01 06:15:00,
2013-02-01 01:20:00,23.6,17.1,29.86,WSW,255,0.0,0.0,76,0.00,,,0.00,Wunderground v.1.15,2013-02-01 06:20:00,
2013-02-01 01:26:00,23.5,17.3,29.86,WSW,255,0.0,0.0,77,0.00,,,0.00,Wunderground v.1.15,2013-02-01 06:26:00,
2013-02-01 01:31:00,23.3,17.2,29.86,WSW,255,0.0,0.0,77,0.00,,,0.00,Wunderground v.1.15,2013-02-01 06:31:00,
2013-02-01 01:37:00,23.1,17.3,29.86,WSW,255,0.0,0.0,78,0.00,,,0.00,Wunderground v.1.15,2013-02-01 06:37:00,
2013-02-01 01:42:00,23.1,17.3,29.87,WSW,255,0.0,0.0,78,0.00,,,0.00,Wunderground v.1.15,2013-02-01 06:42:00,
2013-02-01 01:48:00,23.3,17.2,29.86,WSW,255,0.0,1.0,77,0.00,,,0.00,Wunderground v.1.15,2013-02-01 06:48:00,
2013-02-01 01:53:00,23.5,17.0,29.86,WSW,255,0.0,1.0,76,0.00,,,0.00,Wunderground v.1.15,2013-02-01 06:53:00,
2013-02-01 01:59:00,23.9,17.1,29.86,WSW,255,0.0,4.0,75,0.00,,,0.00,Wunderground v.1.15,2013-02-01 06:59:00,
2013-02-01 02:04:00,24.3,17.2,29.87,WSW,255,0.0,3.0,74,0.00,,,0.00,Wunderground v.1.15,2013-02-01 07:04:00,
2013-02-01 02:09:00,24.6,17.5,29.87,WSW,255,5.0,5.0,74,0.00,,,0.00,Wunderground v.1.15,2013-02-01 07:09:00,
2013-02-01 02:14:00,25.1,17.7,29.86,WSW,255,0.0,3.0,73,0.00,,,0.00,Wunderground v.1.15,2013-02-01 07:14:00,
2013-02-01 02:19:00,25.4,17.6,29.86,WSW,255,0.0,5.0,72,0.00,,,0.00,Wunderground v.1.15,2013-02-01 07:19:00,
2013-02-01 02:24:00,25.8,18.0,29.86,WSW,255,0.0,6.0,72,0.00,,,0.00,Wunderground v.1.15,2013-02-01 07:24:00,
2013-02-01 02:29:00,26.1,18.3,29.86,WSW,255,0.0,6.0,72,0.00,,,0.00,Wunderground v.1.15,2013-02-01 07:29:00,
2013-02-01 02:34:00,26.4,18.6,29.86,WSW,255,0.0,4.0,72,0.00,,,0.00,Wunderground v.1.15,2013-02-01 07:34:00,
2013-02-01 02:39:00,26.8,18.7,29.85,WSW,246,0.0,11.0,71,0.00,,,0.00,Wunderground v.1.15,2013-02-01 07:39:00,
2013-02-01 02:44:00,27.2,18.7,29.85,WSW,246,0.0,5.0,70,0.00,,,0.00,Wunderground v.1.15,2013-02-01 07:44:00,
2013-02-01 02:50:00,27.8,18.9,29.85,SW,232,2.0,17.0,69,0.00,,,0.00,Wunderground v.1.15,2013-02-01 07:50:00,
2013-02-01 02:55:00,28.1,19.2,29.85,SW,232,0.0,7.0,69,0.00,,,0.00,Wunderground v.1.15,2013-02-01 07:55:00,
2013-02-01 03:00:00,28.2,19.3,29.85,SW,232,1.0,7.0,69,0.00,,,0.00,Wunderground v.1.15,2013-02-01 08:00:00,
2013-02-01 03:05:00,28.2,19.3,29.85,SW,232,3.0,3.0,69,0.00,,,0.00,Wunderground v.1.15,2013-02-01 08:05:00,
2013-02-01 03:09:00,28.3,19.1,29.85,SW,232,2.0,6.0,68,0.00,,,0.00,Wunderground v.1.15,2013-02-01 08:09:00,
2013-02-01 03:14:00,28.4,19.5,29.85,SW,233,0.0,6.0,69,0.00,,,0.00,Wunderground v.1.15,2013-02-01 08:14:00,
2013-02-01 03:19:00,28.4,19.5,29.84,SW,233,0.0,6.0,69,0.00,,,0.00,Wunderground v.1.15,2013-02-01 08:19:00,
2013-02-01 03:24:00,28.4,19.9,29.85,SW,233,0.0,1.0,70,0.00,,,0.00,Wunderground v.1.15,2013-02-01 08:24:00,
2013-02-01 03:29:00,28.3,20.1,29.84,SW,233,0.0,3.0,71,0.00,,,0.00,Wunderground v.1.15,2013-02-01 08:29:00,
2013-02-01 03:34:00,28.2,19.7,29.84,SW,233,0.0,2.0,70,0.00,,,0.00,Wunderground v.1.15,2013-02-01 08:34:00,
2013-02-01 03:39:00,28.2,20.0,29.84,SW,233,1.0,3.0,71,0.00,,,0.00,Wunderground v.1.15,2013-02-01 08:39:00,
2013-02-01 03:44:00,28.2,20.0,29.84,SW,233,0.0,2.0,71,0.00,,,0.00,Wunderground v.1.15,2013-02-01 08:44:00,
2013-02-01 03:49:00,28.2,20.0,29.84,SW,233,0.0,2.0,71,0.00,,,0.00,Wunderground v.1.15,2013-02-01 08:49:00,
2013-02-01 03:54:00,28.2,19.7,29.84,SW,233,1.0,1.0,70,0.00,,,0.00,Wunderground v.1.15,2013-02-01 08:54:00,
2013-02-01 03:59:00,28.2,19.7,29.84,SW,233,0.0,2.0,70,0.00,,,0.00,Wunderground v.1.15,2013-02-01 08:59:00,
2013-02-01 04:04:00,28.2,20.0,29.84,SW,233,0.0,0.0,71,0.00,,,0.00,Wunderground v.1.15,2013-02-01 09:04:00,
2013-02-01 04:09:00,28.2,20.0,29.84,SW,233,0.0,2.0,71,0.00,,,0.00,Wunderground v.1.15,2013-02-01 09:09:00,
2013-02-01 04:14:00,28.2,20.7,29.84,SW,233,0.0,1.0,73,0.00,,,0.00,Wunderground v.1.15,2013-02-01 09:14:00,
2013-02-01 04:19:00,28.2,21.0,29.84,SW,233,0.0,2.0,74,0.00,,,0.00,Wunderground v.1.15,2013-02-01 09:19:00,
2013-02-01 04:24:00,28.2,21.9,29.85,WNW,289,1.0,7.0,77,0.00,,,0.00,Wunderground v.1.15,2013-02-01 09:24:00,
2013-02-01 04:29:00,28.1,22.4,29.85,West,277,2.0,11.0,79,0.00,,,0.00,Wunderground v.1.15,2013-02-01 09:29:00,
2013-02-01 04:34:00,27.9,22.8,29.85,West,278,0.0,6.0,81,0.00,,,0.00,Wunderground v.1.15,2013-02-01 09:34:00,
2013-02-01 04:40:00,27.8,23.0,29.85,West,278,2.0,6.0,82,0.00,,,0.00,Wunderground v.1.15,2013-02-01 09:40:00,
2013-02-01 04:45:00,27.6,23.1,29.85,West,279,0.0,6.0,83,0.00,,,0.00,Wunderground v.1.15,2013-02-01 09:45:00,
2013-02-01 04:50:00,27.5,23.3,29.85,West,279,0.0,6.0,84,0.00,,,0.00,Wunderground v.1.15,2013-02-01 09:50:00,
2013-02-01 04:55:00,27.4,23.2,29.85,West,279,0.0,2.0,84,0.00,,,0.00,Wunderground v.1.15,2013-02-01 09:55:00,
2013-02-01 05:00:00,27.2,23.3,29.86,West,279,0.0,2.0,85,0.00,,,0.00,Wunderground v.1.15,2013-02-01 10:00:00,
2013-02-01 05:05:00,27.1,23.5,29.86,West,279,1.0,3.0,86,0.00,,,0.00,Wunderground v.1.15,2013-02-01 10:05:00,
2013-02-01 05:10:00,27.0,23.4,29.86,West,279,0.0,3.0,86,0.00,,,0.00,Wunderground v.1.15,2013-02-01 10:10:00,
2013-02-01 05:15:00,26.9,23.5,29.87,West,279,0.0,3.0,87,0.00,,,0.00,Wunderground v.1.15,2013-02-01 10:15:00,
2013-02-01 05:20:00,26.8,23.4,29.87,West,279,0.0,5.0,87,0.00,,,0.00,Wunderground v.1.15,2013-02-01 10:20:00,
2013-02-01 05:25:00,26.7,23.6,29.87,West,279,3.0,4.0,88,0.00,,,0.00,Wunderground v.1.15,2013-02-01 10:25:00,
2013-02-01 05:30:00,26.5,23.4,29.87,West,279,3.0,5.0,88,0.00,,,0.00,Wunderground v.1.15,2013-02-01 10:30:00,
2013-02-01 05:35:00,26.3,23.5,29.87,NW,312,1.0,11.0,89,0.00,,,0.00,Wunderground v.1.15,2013-02-01 10:35:00,
2013-02-01 05:40:00,26.1,23.3,29.88,NW,315,0.0,3.0,89,0.00,,,0.00,Wunderground v.1.15,2013-02-01 10:40:00,
2013-02-01 05:45:00,25.7,22.9,29.88,NW,310,1.0,8.0,89,0.00,,,0.00,Wunderground v.1.15,2013-02-01 10:45:00,
2013-02-01 05:50:00,25.3,22.8,29.89,NW,306,1.0,2.0,90,0.00,,,0.00,Wunderground v.1.15,2013-02-01 10:50:00,
2013-02-01 05:55:00,25.0,22.5,29.90,West,279,0.0,13.0,90,0.00,,,0.00,Wunderground v.1.15,2013-02-01 10:55:00,
2013-02-01 06:00:00,24.7,22.2,29.90,NW,317,1.0,3.0,90,0.00,,,0.00,Wunderground v.1.15,2013-02-01 11:00:00,
2013-02-01 06:05:00,24.3,21.8,29.90,NW,313,1.0,12.0,90,0.00,,,0.00,Wunderground v.1.15,2013-02-01 11:05:00,
2013-02-01 06:10:00,24.0,21.8,29.90,NW,317,2.0,4.0,91,0.00,,,0.00,Wunderground v.1.15,2013-02-01 11:10:00,
2013-02-01 06:15:00,23.7,21.5,29.90,NW,318,2.0,6.0,91,0.00,,,0.00,Wunderground v.1.15,2013-02-01 11:15:00,
2013-02-01 06:20:00,23.5,21.3,29.90,NW,324,5.0,9.0,91,0.00,,,0.00,Wunderground v.1.15,2013-02-01 11:20:00,
2013-02-01 06:25:00,23.3,21.1,29.91,NW,323,0.0,9.0,91,0.00,,,0.00,Wunderground v.1.15,2013-02-01 11:25:00,
2013-02-01 06:30:00,23.1,20.9,29.91,NW,323,1.0,2.0,91,0.00,,,0.00,Wunderground v.1.15,2013-02-01 11:30:00,
2013-02-01 06:35:00,23.0,20.8,29.91,NW,323,0.0,3.0,91,0.00,,,0.00,Wunderground v.1.15,2013-02-01 11:35:00,
2013-02-01 06:40:00,22.9,20.7,29.91,NW,323,2.0,4.0,91,0.00,,,0.00,Wunderground v.1.15,2013-02-01 11:40:00,
2013-02-01 06:45:00,22.9,20.7,29.91,NW,323,0.0,4.0,91,0.00,,,0.00,Wunderground v.1.15,2013-02-01 11:45:00,
2013-02-01 06:50:00,22.8,20.6,29.92,NW,318,3.0,6.0,91,0.00,,,0.00,Wunderground v.1.15,2013-02-01 11:50:00,
2013-02-01 06:55:00,22.8,20.6,29.92,NW,309,4.0,7.0,91,0.00,,,0.00,Wunderground v.1.15,2013-02-01 11:55:00,
2013-02-01 07:00:00,22.7,20.5,29.92,NW,307,2.0,6.0,91,0.00,,,0.00,Wunderground v.1.15,2013-02-01 12:00:00,
2013-02-01 07:05:00,22.7,20.5,29.92,WNW,300,2.0,9.0,91,0.00,,,0.00,Wunderground v.1.15,2013-02-01 12:05:00,
2013-02-01 07:10:00,22.7,20.5,29.93,WNW,298,0.0,3.0,91,0.00,,,0.00,Wunderground v.1.15,2013-02-01 12:10:00,
2013-02-01 07:16:00,22.7,20.5,29.93,WNW,299,4.0,6.0,91,0.00,,,0.00,Wunderground v.1.15,2013-02-01 12:16:00,
2013-02-01 07:21:00,22.9,20.7,29.94,WNW,296,4.0,4.0,91,0.00,,,0.00,Wunderground v.1.15,2013-02-01 12:21:00,
2013-02-01 07:26:00,22.9,20.7,29.95,NW,323,6.0,10.0,91,0.00,,,0.00,Wunderground v.1.15,2013-02-01 12:26:00,
2013-02-01 07:31:00,22.7,20.5,29.96,WNW,285,3.0,5.0,91,0.00,,,0.00,Wunderground v.1.15,2013-02-01 12:31:00,
2013-02-01 07:36:00,22.2,19.7,29.97,WNW,288,5.0,13.0,90,0.00,,,0.00,Wunderground v.1.15,2013-02-01 12:36:00,
2013-02-01 07:41:00,21.7,18.7,29.97,WNW,289,3.0,5.0,88,0.00,,,0.00,Wunderground v.1.15,2013-02-01 12:41:00,
2013-02-01 07:46:00,21.2,17.9,29.98,WNW,296,4.0,12.0,87,0.00,,,0.00,Wunderground v.1.15,2013-02-01 12:46:00,
2013-02-01 07:51:00,21.0,17.2,29.98,West,279,9.0,10.0,85,0.00,,,0.00,Wunderground v.1.15,2013-02-01 12:51:00,
2013-02-01 07:56:00,20.7,16.4,29.98,WNW,286,9.0,11.0,83,0.00,,,0.00,Wunderground v.1.15,2013-02-01 12:56:00,
2013-02-01 08:01:00,20.5,15.9,29.99,WNW,300,2.0,4.0,82,0.00,,,0.00,Wunderground v.1.15,2013-02-01 13:01:00,
2013-02-01 08:06:00,20.4,15.8,29.99,WNW,293,5.0,11.0,82,0.00,,,0.00,Wunderground v.1.15,2013-02-01 13:06:00,
2013-02-01 08:11:00,20.4,15.8,29.99,WNW,296,2.0,12.0,82,0.00,,,0.00,Wunderground v.1.15,2013-02-01 13:11:00,
2013-02-01 08:16:00,20.4,15.5,29.99,WNW,301,7.0,27.0,81,0.00,,,0.00,Wunderground v.1.15,2013-02-01 13:16:00,
2013-02-01 08:21:00,20.5,15.0,30.00,WNW,296,5.0,22.0,79,0.00,,,0.00,Wunderground v.1.15,2013-02-01 13:21:00,
2013-02-01 08:26:00,20.7,14.9,30.00,NW,307,3.0,22.0,78,0.00,,,0.00,Wunderground v.1.15,2013-02-01 13:26:00,
2013-02-01 08:31:00,21.0,14.6,30.01,WNW,292,5.0,17.0,76,0.00,,,0.00,Wunderground v.1.15,2013-02-01 13:31:00,
2013-02-01 08:36:00,21.4,14.7,30.01,WNW,293,2.0,22.0,75,0.00,,,0.00,Wunderground v.1.15,2013-02-01 13:36:00,
2013-02-01 08:41:00,22.0,15.0,30.01,West,277,3.0,14.0,74,0.00,,,0.00,Wunderground v.1.15,2013-02-01 13:41:00,
2013-02-01 08:46:00,22.5,15.1,30.02,WNW,298,9.0,18.0,73,0.00,,,0.00,Wunderground v.1.15,2013-02-01 13:46:00,
2013-02-01 08:51:00,22.8,14.5,30.02,WNW,295,1.0,13.0,70,0.00,,,0.00,Wunderground v.1.15,2013-02-01 13:51:00,
2013-02-01 08:56:00,23.3,15.3,30.02,WNW,296,3.0,13.0,71,0.00,,,0.00,Wunderground v.1.15,2013-02-01 13:56:00,
2013-02-01 09:02:00,23.6,14.9,30.02,West,277,1.0,11.0,69,0.00,,,0.00,Wunderground v.1.15,2013-02-01 14:02:00,
2013-02-01 09:07:00,23.4,14.0,30.03,WNW,295,7.0,15.0,67,0.07,,,0.01,Wunderground v.1.15,2013-02-01 14:07:00,
2013-02-01 09:12:00,22.5,13.5,30.04,NW,306,5.0,17.0,68,0.06,,,0.01,Wunderground v.1.15,2013-02-01 14:12:00,
2013-02-01 09:17:00,22.4,13.8,30.04,WNW,294,12.0,25.0,69,0.04,,,0.01,Wunderground v.1.15,2013-02-01 14:17:00,
2013-02-01 09:22:00,23.0,14.0,30.04,WNW,300,11.0,20.0,68,0.00,,,0.01,Wunderground v.1.15,2013-02-01 14:22:00,
2013-02-01 09:27:00,23.6,14.2,30.04,WNW,290,2.0,20.0,67,0.00,,,0.01,Wunderground v.1.15,2013-02-01 14:27:00,
2013-02-01 09:32:00,23.8,14.1,30.04,WNW,291,3.0,14.0,66,0.00,,,0.01,Wunderground v.1.15,2013-02-01 14:32:00,
2013-02-01 09:37:00,24.1,14.0,30.05,NW,306,9.0,25.0,65,0.00,,,0.02,Wunderground v.1.15,2013-02-01 14:37:00,
2013-02-01 09:42:00,24.4,14.3,30.05,West,275,6.0,18.0,65,0.00,,,0.02,Wunderground v.1.15,2013-02-01 14:42:00,
2013-02-01 09:47:00,24.5,13.7,30.06,WNW,299,6.0,22.0,63,0.00,,,0.02,Wunderground v.1.15,2013-02-01 14:47:00,
2013-02-01 09:52:00,24.5,14.1,30.06,WNW,295,11.0,22.0,64,0.00,,,0.02,Wunderground v.1.15,2013-02-01 14:52:00,
2013-02-01 09:57:00,24.6,14.1,30.07,WNW,294,9.0,22.0,64,0.00,,,0.03,Wunderground v.1.15,2013-02-01 14:57:00,
2013-02-01 10:02:00,24.5,13.7,30.07,NW,321,3.0,16.0,63,0.00,,,0.03,Wunderground v.1.15,2013-02-01 15:02:00,
2013-02-01 10:07:00,24.7,13.5,30.07,WNW,295,5.0,19.0,62,0.00,,,0.03,Wunderground v.1.15,2013-02-01 15:07:00,
2013-02-01 10:12:00,24.7,13.5,30.07,WNW,284,10.0,20.0,62,0.00,,,0.03,Wunderground v.1.15,2013-02-01 15:12:00,
2013-02-01 10:17:00,24.5,13.3,30.07,WNW,292,5.0,21.0,62,0.00,,,0.03,Wunderground v.1.15,2013-02-01 15:17:00,
2013-02-01 10:22:00,24.3,13.1,30.08,WNW,294,4.0,25.0,62,0.00,,,0.03,Wunderground v.1.15,2013-02-01 15:22:00,
2013-02-01 10:27:00,24.5,13.3,30.09,WNW,288,6.0,25.0,62,0.00,,,0.04,Wunderground v.1.15,2013-02-01 15:27:00,
2013-02-01 10:32:00,24.8,13.6,30.09,WNW,292,9.0,10.0,62,0.00,,,0.04,Wunderground v.1.15,2013-02-01 15:32:00,
2013-02-01 10:37:00,24.4,12.9,30.09,WNW,288,11.0,24.0,61,0.00,,,0.04,Wunderground v.1.15,2013-02-01 15:37:00,
2013-02-01 10:42:00,24.3,13.5,30.09,WSW,242,4.0,17.0,63,0.00,,,0.04,Wunderground v.1.15,2013-02-01 15:42:00,
2013-02-01 10:47:00,24.6,13.4,30.09,WSW,241,4.0,28.0,62,0.00,,,0.04,Wunderground v.1.15,2013-02-01 15:47:00,
2013-02-01 10:52:00,24.5,13.7,30.10,WNW,288,7.0,15.0,63,0.00,,,0.04,Wunderground v.1.15,2013-02-01 15:52:00,
2013-02-01 10:57:00,25.0,14.5,30.10,West,277,13.0,22.0,64,0.00,,,0.04,Wunderground v.1.15,2013-02-01 15:57:00,
2013-02-01 11:02:00,25.4,14.5,30.10,WNW,289,11.0,15.0,63,0.00,,,0.04,Wunderground v.1.15,2013-02-01 16:02:00,
2013-02-01 11:07:00,26.0,15.1,30.10,WNW,294,7.0,16.0,63,0.00,,,0.04,Wunderground v.1.15,2013-02-01 16:07:00,
2013-02-01 11:12:00,25.7,13.7,30.10,NW,307,6.0,18.0,60,0.00,,,0.04,Wunderground v.1.15,2013-02-01 16:12:00,
2013-02-01 11:17:00,26.0,14.8,30.11,West,276,6.0,18.0,62,0.00,,,0.04,Wunderground v.1.15,2013-02-01 16:17:00,
2013-02-01 11:22:00,26.2,14.2,30.11,NW,304,5.0,16.0,60,0.00,,,0.05,Wunderground v.1.15,2013-02-01 16:22:00,
2013-02-01 11:27:00,25.9,13.9,30.12,WNW,299,3.0,16.0,60,0.00,,,0.05,Wunderground v.1.15,2013-02-01 16:27:00,
2013-02-01 11:32:00,25.5,13.9,30.12,WNW,296,4.0,19.0,61,0.00,,,0.05,Wunderground v.1.15,2013-02-01 16:32:00,
2013-02-01 11:37:00,25.6,13.2,30.13,NW,320,3.0,22.0,59,0.00,,,0.05,Wunderground v.1.15,2013-02-01 16:37:00,
2013-02-01 11:42:00,25.6,13.2,30.13,WNW,294,11.0,14.0,59,0.00,,,0.05,Wunderground v.1.15,2013-02-01 16:42:00,
2013-02-01 11:47:00,25.5,13.5,30.12,WNW,286,3.0,14.0,60,0.00,,,0.05,Wunderground v.1.15,2013-02-01 16:47:00,
2013-02-01 11:52:00,25.4,13.4,30.13,WNW,290,4.0,13.0,60,0.00,,,0.05,Wunderground v.1.15,2013-02-01 16:52:00,
2013-02-01 11:57:00,25.4,13.4,30.13,West,279,3.0,14.0,60,0.00,,,0.05,Wunderground v.1.15,2013-02-01 16:57:00,
2013-02-01 12:02:00,24.8,12.5,30.13,NW,317,16.0,18.0,59,0.00,,,0.05,Wunderground v.1.15,2013-02-01 17:02:00,
2013-02-01 12:07:00,23.9,11.6,30.13,West,273,7.0,22.0,59,0.00,,,0.05,Wunderground v.1.15,2013-02-01 17:07:00,
2013-02-01 12:12:00,23.3,11.1,30.14,WNW,295,5.0,20.0,59,0.00,,,0.05,Wunderground v.1.15,2013-02-01 17:12:00,
2013-02-01 12:17:00,23.1,11.6,30.13,NW,311,2.0,22.0,61,0.00,,,0.05,Wunderground v.1.15,2013-02-01 17:17:00,
2013-02-01 12:22:00,23.1,11.3,30.13,WNW,297,12.0,18.0,60,0.00,,,0.05,Wunderground v.1.15,2013-02-01 17:22:00,
2013-02-01 12:27:00,23.0,11.5,30.14,WNW,300,5.0,21.0,61,0.00,,,0.05,Wunderground v.1.15,2013-02-01 17:27:00,
2013-02-01 12:32:00,22.9,11.4,30.13,WNW,286,13.0,15.0,61,0.00,,,0.05,Wunderground v.1.15,2013-02-01 17:32:00,
2013-02-01 12:37:00,23.1,12.0,30.14,WNW,294,2.0,23.0,62,0.00,,,0.05,Wunderground v.1.15,2013-02-01 17:37:00,
2013-02-01 12:42:00,24.2,13.4,30.13,West,277,5.0,18.0,63,0.00,,,0.05,Wunderground v.1.15,2013-02-01 17:42:00,
2013-02-01 12:47:00,24.8,13.2,30.14,WNW,299,4.0,20.0,61,0.00,,,0.05,Wunderground v.1.15,2013-02-01 17:47:00,
2013-02-01 12:52:00,25.3,13.3,30.14,WNW,290,2.0,15.0,60,0.00,,,0.05,Wunderground v.1.15,2013-02-01 17:52:00,
2013-02-01 12:57:00,25.9,13.5,30.14,NW,311,6.0,15.0,59,0.00,,,0.05,Wunderground v.1.15,2013-02-01 17:57:00,
2013-02-01 13:02:00,26.6,14.6,30.14,NW,323,1.0,8.0,60,0.00,,,0.05,Wunderground v.1.15,2013-02-01 18:02:00,
2013-02-01 13:07:00,27.5,15.8,30.13,WNW,283,2.0,16.0,61,0.00,,,0.05,Wunderground v.1.15,2013-02-01 18:07:00,
2013-02-01 13:12:00,27.7,14.4,30.14,West,281,6.0,20.0,57,0.00,,,0.05,Wunderground v.1.15,2013-02-01 18:12:00,
2013-02-01 13:17:00,26.8,14.8,30.14,West,269,2.0,20.0,60,0.00,,,0.05,Wunderground v.1.15,2013-02-01 18:17:00,
2013-02-01 13:22:00,26.5,13.7,30.15,NW,309,16.0,19.0,58,0.00,,,0.05,Wunderground v.1.15,2013-02-01 18:22:00,
2013-02-01 13:27:00,25.9,12.7,30.15,WNW,292,8.0,19.0,57,0.00,,,0.05,Wunderground v.1.15,2013-02-01 18:27:00,
2013-02-01 13:32:00,25.2,12.1,30.15,WNW,290,6.0,18.0,57,0.00,,,0.05,Wunderground v.1.15,2013-02-01 18:32:00,
2013-02-01 13:37:00,25.0,12.7,30.15,WNW,296,1.0,23.0,59,0.00,,,0.05,Wunderground v.1.15,2013-02-01 18:37:00,
2013-02-01 13:42:00,25.8,13.8,30.14,WNW,284,2.0,18.0,60,0.00,,,0.05,Wunderground v.1.15,2013-02-01 18:42:00,
2013-02-01 13:47:00,26.5,13.3,30.15,NW,310,7.0,18.0,57,0.00,,,0.05,Wunderground v.1.15,2013-02-01 18:47:00,
2013-02-01 13:52:00,25.9,12.7,30.15,West,273,5.0,22.0,57,0.00,,,0.05,Wunderground v.1.15,2013-02-01 18:52:00,
2013-02-01 13:57:00,25.7,13.3,30.15,WNW,302,2.0,22.0,59,0.00,,,0.05,Wunderground v.1.15,2013-02-01 18:57:00,
2013-02-01 14:02:00,26.0,12.8,30.15,WNW,293,2.0,10.0,57,0.00,,,0.05,Wunderground v.1.15,2013-02-01 19:02:00,
2013-02-01 14:07:00,25.6,12.9,30.15,WNW,300,1.0,18.0,58,0.00,,,0.05,Wunderground v.1.15,2013-02-01 19:07:00,
2013-02-01 14:12:00,25.4,13.4,30.16,WNW,288,6.0,11.0,60,0.00,,,0.05,Wunderground v.1.15,2013-02-01 19:12:00,
2013-02-01 14:18:00,25.2,12.9,30.16,WNW,291,13.0,15.0,59,0.00,,,0.05,Wunderground v.1.15,2013-02-01 19:18:00,
2013-02-01 14:23:00,25.4,13.4,30.16,NW,306,12.0,18.0,60,0.00,,,0.05,Wunderground v.1.15,2013-02-01 19:23:00,
2013-02-01 14:28:00,25.2,12.1,30.17,West,279,7.0,21.0,57,0.00,,,0.05,Wunderground v.1.15,2013-02-01 19:28:00,
2013-02-01 14:33:00,24.4,11.3,30.17,WNW,295,7.0,16.0,57,0.00,,,0.05,Wunderground v.1.15,2013-02-01 19:33:00,
2013-02-01 14:38:00,23.5,11.3,30.17,WNW,287,3.0,16.0,59,0.00,,,0.05,Wunderground v.1.15,2013-02-01 19:38:00,
2013-02-01 14:43:00,23.0,11.2,30.18,WNW,290,7.0,15.0,60,0.00,,,0.05,Wunderground v.1.15,2013-02-01 19:43:00,
2013-02-01 14:48:00,22.7,11.3,30.18,WNW,296,4.0,18.0,61,0.00,,,0.05,Wunderground v.1.15,2013-02-01 19:48:00,
2013-02-01 14:53:00,22.7,11.3,30.18,WNW,288,4.0,17.0,61,0.00,,,0.05,Wunderground v.1.15,2013-02-01 19:53:00,
2013-02-01 14:58:00,22.7,11.3,30.18,West,272,13.0,18.0,61,0.00,,,0.05,Wunderground v.1.15,2013-02-01 19:58:00,
2013-02-01 15:03:00,22.9,12.2,30.18,WNW,286,2.0,15.0,63,0.00,,,0.05,Wunderground v.1.15,2013-02-01 20:03:00,
2013-02-01 15:08:00,23.6,12.8,30.18,WSW,253,3.0,16.0,63,0.00,,,0.05,Wunderground v.1.15,2013-02-01 20:08:00,
2013-02-01 15:13:00,24.4,12.5,30.18,WNW,286,11.0,11.0,60,0.00,,,0.05,Wunderground v.1.15,2013-02-01 20:13:00,
2013-02-01 15:18:00,24.8,12.9,30.18,WNW,303,6.0,14.0,60,0.00,,,0.05,Wunderground v.1.15,2013-02-01 20:18:00,
2013-02-01 15:23:00,24.8,11.7,30.19,West,277,2.0,18.0,57,0.00,,,0.05,Wunderground v.1.15,2013-02-01 20:23:00,
2013-02-01 15:28:00,24.4,11.7,30.19,West,272,3.0,18.0,58,0.00,,,0.05,Wunderground v.1.15,2013-02-01 20:28:00,
2013-02-01 15:33:00,23.8,10.8,30.19,WNW,296,4.0,12.0,57,0.00,,,0.05,Wunderground v.1.15,2013-02-01 20:33:00,
2013-02-01 15:38:00,23.8,11.9,30.20,WNW,294,11.0,15.0,60,0.00,,,0.05,Wunderground v.1.15,2013-02-01 20:38:00,
2013-02-01 15:43:00,24.0,11.7,30.20,WNW,289,2.0,14.0,59,0.00,,,0.05,Wunderground v.1.15,2013-02-01 20:43:00,
2013-02-01 15:48:00,24.5,11.8,30.20,SW,227,9.0,15.0,58,0.00,,,0.05,Wunderground v.1.15,2013-02-01 20:48:00,
2013-02-01 15:53:00,24.7,12.0,30.20,WNW,289,3.0,15.0,58,0.00,,,0.05,Wunderground v.1.15,2013-02-01 20:53:00,
2013-02-01 15:58:00,24.5,11.4,30.21,WNW,288,2.0,17.0,57,0.00,,,0.05,Wunderground v.1.15,2013-02-01 20:58:00,
2013-02-01 16:03:00,24.4,11.3,30.21,WNW,300,10.0,14.0,57,0.00,,,0.05,Wunderground v.1.15,2013-02-01 21:03:00,
2013-02-01 16:08:00,24.4,11.7,30.21,WNW,303,3.0,19.0,58,0.00,,,0.05,Wunderground v.1.15,2013-02-01 21:08:00,
2013-02-01 16:13:00,24.7,12.4,30.21,WNW,294,2.0,12.0,59,0.00,,,0.05,Wunderground v.1.15,2013-02-01 21:13:00,
2013-02-01 16:18:00,24.8,12.1,30.22,NW,311,9.0,15.0,58,0.00,,,0.05,Wunderground v.1.15,2013-02-01 21:18:00,
2013-02-01 16:23:00,24.8,11.3,30.22,WNW,282,2.0,15.0,56,0.00,,,0.05,Wunderground v.1.15,2013-02-01 21:23:00,
2013-02-01 16:28:00,24.5,11.4,30.23,WNW,295,9.0,15.0,57,0.00,,,0.05,Wunderground v.1.15,2013-02-01 21:28:00,
2013-02-01 16:33:00,23.8,10.4,30.23,West,279,19.0,19.0,56,0.00,,,0.05,Wunderground v.1.15,2013-02-01 21:33:00,
2013-02-01 16:38:00,23.4,10.4,30.24,WNW,292,14.0,19.0,57,0.00,,,0.05,Wunderground v.1.15,2013-02-01 21:38:00,
2013-02-01 16:44:00,23.3,10.3,30.24,WNW,296,4.0,11.0,57,0.00,,,0.05,Wunderground v.1.15,2013-02-01 21:44:00,
2013-02-01 16:49:00,23.0,10.4,30.24,WNW,289,1.0,12.0,58,0.00,,,0.05,Wunderground v.1.15,2013-02-01 21:49:00,
2013-02-01 16:54:00,22.6,10.4,30.24,WNW,292,2.0,12.0,59,0.00,,,0.05,Wunderground v.1.15,2013-02-01 21:54:00,
2013-02-01 16:59:00,22.1,10.3,30.25,NW,313,1.0,20.0,60,0.00,,,0.05,Wunderground v.1.15,2013-02-01 21:59:00,
2013-02-01 17:04:00,21.7,10.3,30.25,WNW,295,3.0,9.0,61,0.00,,,0.05,Wunderground v.1.15,2013-02-01 22:04:00,
2013-02-01 17:09:00,21.3,9.6,30.25,WNW,294,1.0,13.0,60,0.00,,,0.05,Wunderground v.1.15,2013-02-01 22:09:00,
2013-02-01 17:14:00,20.9,9.2,30.25,WNW,293,1.0,14.0,60,0.00,,,0.05,Wunderground v.1.15,2013-02-01 22:14:00,
2013-02-01 17:19:00,20.6,9.3,30.25,WNW,283,2.0,14.0,61,0.00,,,0.05,Wunderground v.1.15,2013-02-01 22:19:00,
2013-02-01 17:24:00,20.3,9.3,30.26,WNW,292,3.0,10.0,62,0.00,,,0.05,Wunderground v.1.15,2013-02-01 22:24:00,
2013-02-01 17:29:00,19.9,8.6,30.26,NW,306,13.0,17.0,61,0.00,,,0.05,Wunderground v.1.15,2013-02-01 22:29:00,
2013-02-01 17:34:00,19.7,8.4,30.27,WSW,247,0.0,12.0,61,0.00,,,0.05,Wunderground v.1.15,2013-02-01 22:34:00,
2013-02-01 17:39:00,19.6,8.3,30.27,West,275,3.0,12.0,61,0.00,,,0.05,Wunderground v.1.15,2013-02-01 22:39:00,
2013-02-01 17:44:00,19.4,8.1,30.27,West,279,6.0,10.0,61,0.00,,,0.05,Wunderground v.1.15,2013-02-01 22:44:00,
2013-02-01 17:49:00,19.3,8.0,30.28,WNW,286,0.0,10.0,61,0.00,,,0.05,Wunderground v.1.15,2013-02-01 22:49:00,
2013-02-01 17:54:00,19.1,8.2,30.28,WNW,293,4.0,9.0,62,0.00,,,0.05,Wunderground v.1.15,2013-02-01 22:54:00,
2013-02-01 17:59:00,18.9,8.4,30.28,WNW,283,2.0,10.0,63,0.00,,,0.05,Wunderground v.1.15,2013-02-01 22:59:00,
2013-02-01 18:04:00,18.8,8.3,30.28,WNW,283,0.0,4.0,63,0.00,,,0.05,Wunderground v.1.15,2013-02-01 23:04:00,
2013-02-01 18:09:00,18.8,9.0,30.29,NW,318,2.0,14.0,65,0.00,,,0.05,Wunderground v.1.15,2013-02-01 23:09:00,
2013-02-01 18:14:00,18.8,8.6,30.29,NW,314,1.0,7.0,64,0.00,,,0.05,Wunderground v.1.15,2013-02-01 23:14:00,
2013-02-01 18:19:00,18.8,8.6,30.29,NW,311,0.0,7.0,64,0.00,,,0.05,Wunderground v.1.15,2013-02-01 23:19:00,
2013-02-01 18:24:00,18.8,9.0,30.29,WNW,283,9.0,9.0,65,0.00,,,0.05,Wunderground v.1.15,2013-02-01 23:24:00,
2013-02-01 18:29:00,18.8,8.6,30.30,West,275,2.0,13.0,64,0.00,,,0.05,Wunderground v.1.15,2013-02-01 23:29:00,
2013-02-01 18:34:00,18.8,9.0,30.30,West,279,4.0,11.0,65,0.00,,,0.05,Wunderground v.1.15,2013-02-01 23:34:00,
2013-02-01 18:39:00,18.8,9.0,30.30,West,278,0.0,14.0,65,0.00,,,0.05,Wunderground v.1.15,2013-02-01 23:39:00,
2013-02-01 18:44:00,18.7,8.5,30.30,WNW,298,2.0,13.0,64,0.00,,,0.05,Wunderground v.1.15,2013-02-01 23:44:00,
2013-02-01 18:50:00,18.6,8.4,30.30,West,279,1.0,14.0,64,0.00,,,0.05,Wunderground v.1.15,2013-02-01 23:50:00,
2013-02-01 18:55:00,18.5,8.3,30.31,West,269,4.0,17.0,64,0.00,,,0.05,Wunderground v.1.15,2013-02-01 23:55:00,
2013-02-01 19:00:00,18.4,8.2,30.31,West,277,4.0,17.0,64,0.00,,,0.05,Wunderground v.1.15,2013-02-02 00:00:00,
2013-02-01 19:05:00,18.3,8.1,30.32,West,278,9.0,16.0,64,0.00,,,0.05,Wunderground v.1.15,2013-02-02 00:05:00,
2013-02-01 19:10:00,18.2,8.1,30.32,West,272,0.0,16.0,64,0.00,,,0.05,Wunderground v.1.15,2013-02-02 00:10:00,
2013-02-01 19:15:00,18.2,8.1,30.32,West,275,2.0,16.0,64,0.00,,,0.05,Wunderground v.1.15,2013-02-02 00:15:00,
2013-02-01 19:20:00,18.1,8.0,30.32,WNW,295,7.0,16.0,64,0.00,,,0.05,Wunderground v.1.15,2013-02-02 00:20:00,
2013-02-01 19:25:00,18.0,7.9,30.33,West,279,4.0,12.0,64,0.00,,,0.05,Wunderground v.1.15,2013-02-02 00:25:00,
2013-02-01 19:30:00,17.9,7.8,30.33,NW,304,4.0,18.0,64,0.00,,,0.05,Wunderground v.1.15,2013-02-02 00:30:00,
2013-02-01 19:35:00,17.8,8.0,30.33,WNW,294,5.0,12.0,65,0.00,,,0.05,Wunderground v.1.15,2013-02-02 00:35:00,
2013-02-01 19:40:00,17.7,7.9,30.33,WNW,293,6.0,12.0,65,0.00,,,0.05,Wunderground v.1.15,2013-02-02 00:40:00,
2013-02-01 19:45:00,17.6,7.8,30.33,WNW,284,6.0,12.0,65,0.00,,,0.05,Wunderground v.1.15,2013-02-02 00:45:00,
2013-02-01 19:50:00,17.5,7.7,30.33,West,278,4.0,4.0,65,0.00,,,0.05,Wunderground v.1.15,2013-02-02 00:50:00,
2013-02-01 19:55:00,17.3,7.5,30.34,West,276,0.0,12.0,65,0.00,,,0.05,Wunderground v.1.15,2013-02-02 00:55:00,
2013-02-01 20:00:00,17.2,7.8,30.33,West,281,4.0,4.0,66,0.00,,,0.05,Wunderground v.1.15,2013-02-02 01:00:00,
2013-02-01 20:05:00,17.1,7.7,30.34,WNW,295,5.0,13.0,66,0.00,,,0.05,Wunderground v.1.15,2013-02-02 01:05:00,
2013-02-01 20:10:00,17.1,7.7,30.34,WNW,290,0.0,4.0,66,0.00,,,0.05,Wunderground v.1.15,2013-02-02 01:10:00,
2013-02-01 20:15:00,17.0,7.6,30.34,WNW,292,5.0,14.0,66,0.00,,,0.05,Wunderground v.1.15,2013-02-02 01:15:00,
2013-02-01 20:20:00,17.0,7.3,30.34,WNW,287,10.0,11.0,65,0.00,,,0.05,Wunderground v.1.15,2013-02-02 01:20:00,
2013-02-01 20:25:00,17.1,7.3,30.35,NW,309,3.0,17.0,65,0.00,,,0.05,Wunderground v.1.15,2013-02-02 01:25:00,
2013-02-01 20:30:00,17.1,7.3,30.34,WNW,290,3.0,5.0,65,0.00,,,0.05,Wunderground v.1.15,2013-02-02 01:30:00,
2013-02-01 20:35:00,17.1,7.7,30.34,WNW,295,7.0,7.0,66,0.00,,,0.05,Wunderground v.1.15,2013-02-02 01:35:00,
2013-02-01 20:41:00,16.9,7.8,30.33,WNW,298,4.0,6.0,67,0.00,,,0.05,Wunderground v.1.15,2013-02-02 01:41:00,
2013-02-01 20:46:00,16.8,7.7,30.34,West,261,7.0,16.0,67,0.00,,,0.05,Wunderground v.1.15,2013-02-02 01:46:00,
2013-02-01 20:51:00,16.7,7.0,30.34,West,271,3.0,10.0,65,0.00,,,0.05,Wunderground v.1.15,2013-02-02 01:51:00,
2013-02-01 20:56:00,16.7,7.0,30.34,WNW,289,5.0,13.0,65,0.00,,,0.05,Wunderground v.1.15,2013-02-02 01:56:00,
2013-02-01 21:01:00,16.7,7.0,30.34,WNW,294,3.0,9.0,65,0.00,,,0.05,Wunderground v.1.15,2013-02-02 02:01:00,
2013-02-01 21:06:00,16.7,7.3,30.34,WNW,292,14.0,14.0,66,0.00,,,0.05,Wunderground v.1.15,2013-02-02 02:06:00,
2013-02-01 21:11:00,16.7,7.3,30.34,WNW,303,2.0,11.0,66,0.00,,,0.05,Wunderground v.1.15,2013-02-02 02:11:00,
2013-02-01 21:16:00,16.7,7.3,30.34,WSW,238,2.0,15.0,66,0.00,,,0.05,Wunderground v.1.15,2013-02-02 02:16:00,
2013-02-01 21:21:00,16.6,7.2,30.34,West,279,0.0,4.0,66,0.00,,,0.05,Wunderground v.1.15,2013-02-02 02:21:00,
2013-02-01 21:26:00,16.4,7.3,30.35,West,279,1.0,9.0,67,0.00,,,0.05,Wunderground v.1.15,2013-02-02 02:26:00,
2013-02-01 21:31:00,16.2,6.8,30.35,West,279,0.0,6.0,66,0.00,,,0.05,Wunderground v.1.15,2013-02-02 02:31:00,
2013-02-01 21:36:00,16.1,7.1,30.36,West,280,1.0,6.0,67,0.00,,,0.05,Wunderground v.1.15,2013-02-02 02:36:00,
2013-02-01 21:41:00,15.9,7.2,30.36,West,280,2.0,4.0,68,0.00,,,0.05,Wunderground v.1.15,2013-02-02 02:41:00,
2013-02-01 21:46:00,15.6,6.9,30.36,West,280,2.0,10.0,68,0.00,,,0.05,Wunderground v.1.15,2013-02-02 02:46:00,
2013-02-01 21:51:00,15.5,7.5,30.35,West,279,4.0,9.0,70,0.00,,,0.05,Wunderground v.1.15,2013-02-02 02:51:00,
2013-02-01 21:56:00,15.5,7.8,30.35,West,279,5.0,9.0,71,0.00,,,0.05,Wunderground v.1.15,2013-02-02 02:56:00,
2013-02-01 22:01:00,15.5,7.8,30.36,WNW,282,7.0,7.0,71,0.00,,,0.05,Wunderground v.1.15,2013-02-02 03:01:00,
2013-02-01 22:06:00,15.6,7.9,30.36,WNW,283,1.0,7.0,71,0.00,,,0.05,Wunderground v.1.15,2013-02-02 03:06:00,
2013-02-01 22:11:00,15.6,7.9,30.36,WNW,282,0.0,4.0,71,0.00,,,0.05,Wunderground v.1.15,2013-02-02 03:11:00,
2013-02-01 22:16:00,15.6,8.2,30.36,West,275,2.0,11.0,72,0.00,,,0.05,Wunderground v.1.15,2013-02-02 03:16:00,
2013-02-01 22:21:00,15.5,7.8,30.37,West,277,1.0,4.0,71,0.00,,,0.05,Wunderground v.1.15,2013-02-02 03:21:00,
2013-02-01 22:26:00,15.5,7.8,30.37,West,269,0.0,13.0,71,0.00,,,0.05,Wunderground v.1.15,2013-02-02 03:26:00,
2013-02-01 22:31:00,15.5,7.8,30.37,West,273,6.0,6.0,71,0.00,,,0.05,Wunderground v.1.15,2013-02-02 03:31:00,
2013-02-01 22:37:00,15.6,7.6,30.37,West,273,0.0,6.0,70,0.00,,,0.05,Wunderground v.1.15,2013-02-02 03:37:00,
2013-02-01 22:42:00,15.6,7.6,30.37,West,273,1.0,1.0,70,0.00,,,0.05,Wunderground v.1.15,2013-02-02 03:42:00,
2013-02-01 22:47:00,15.6,7.6,30.38,West,274,0.0,9.0,70,0.00,,,0.05,Wunderground v.1.15,2013-02-02 03:47:00,
2013-02-01 22:52:00,15.5,7.1,30.38,West,274,4.0,6.0,69,0.00,,,0.05,Wunderground v.1.15,2013-02-02 03:52:00,
2013-02-01 22:57:00,15.4,7.4,30.38,West,275,2.0,10.0,70,0.00,,,0.05,Wunderground v.1.15,2013-02-02 03:57:00,
2013-02-01 23:02:00,15.3,7.3,30.38,West,275,2.0,2.0,70,0.00,,,0.05,Wunderground v.1.15,2013-02-02 04:02:00,
2013-02-01 23:07:00,15.2,7.2,30.38,West,275,0.0,4.0,70,0.00,,,0.05,Wunderground v.1.15,2013-02-02 04:07:00,
2013-02-01 23:12:00,14.9,7.2,30.38,West,275,0.0,1.0,71,0.00,,,0.05,Wunderground v.1.15,2013-02-02 04:12:00,
2013-02-01 23:17:00,14.6,6.6,30.38,West,275,0.0,3.0,70,0.00,,,0.05,Wunderground v.1.15,2013-02-02 04:17:00,
2013-02-01 23:22:00,14.4,6.4,30.38,West,275,1.0,1.0,70,0.00,,,0.05,Wunderground v.1.15,2013-02-02 04:22:00,
2013-02-01 23:27:00,14.3,6.3,30.39,West,275,0.0,2.0,70,0.00,,,0.05,Wunderground v.1.15,2013-02-02 04:27:00,
2013-02-01 23:32:00,14.2,6.2,30.39,West,275,3.0,3.0,70,0.00,,,0.05,Wunderground v.1.15,2013-02-02 04:32:00,
2013-02-01 23:37:00,14.2,6.8,30.39,West,275,0.0,5.0,72,0.00,,,0.05,Wunderground v.1.15,2013-02-02 04:37:00,
2013-02-01 23:42:00,14.3,6.9,30.39,West,275,1.0,5.0,72,0.00,,,0.05,Wunderground v.1.15,2013-02-02 04:42:00,
2013-02-01 23:47:00,14.3,6.6,30.39,West,275,2.0,5.0,71,0.00,,,0.05,Wunderground v.1.15,2013-02-02 04:47:00,
2013-02-01 23:52:00,14.3,6.6,30.39,West,275,1.0,1.0,71,0.00,,,0.05,Wunderground v.1.15,2013-02-02 04:52:00,
2013-02-01 23:57:00,14.3,6.9,30.39,West,275,0.0,3.0,72,0.00,,,0.05,Wunderground v.1.15,2013-02-02 04:57:00,